EN

Hourly Weather Cravo Norte

Today, 29 October, Thursday

Time Temperature Precipitation Wind Pressure Humidity
00:00 +27°C° 0.2 mm 2 mps 746 mmHg 90%
01:00 +27°C° 0.2 mm 2 mps 746 mmHg 91%
02:00 +26°C° 0 mm 2 mps 745 mmHg 91%
03:00 +26°C° 0 mm 2 mps 745 mmHg 92%
04:00 +26°C° 0 mm 2 mps 745 mmHg 93%
05:00 +27°C° 0 mm 2 mps 746 mmHg 90%
06:00 +27°C° 0 mm 2 mps 746 mmHg 87%
07:00 +28°C° 0 mm 2 mps 747 mmHg 84%
08:00 +29°C° 0 mm 3 mps 748 mmHg 76%
09:00 +31°C° 0 mm 3 mps 748 mmHg 69%
10:00 +34°C° 0 mm 3 mps 748 mmHg 61%
11:00 +35°C° 0 mm 3 mps 747 mmHg 56%
12:00 +36°C° 0 mm 3 mps 746 mmHg 52%
13:00 +37°C° 0 mm 3 mps 745 mmHg 47%
14:00 +36°C° 0 mm 3 mps 745 mmHg 49%
15:00 +36°C° 0 mm 3 mps 745 mmHg 52%
16:00 +35°C° 0 mm 3 mps 744 mmHg 55%
17:00 +34°C° 0 mm 2 mps 745 mmHg 60%
18:00 +31°C° 0 mm 2 mps 745 mmHg 66%
19:00 +30°C° 0 mm 2 mps 746 mmHg 72%
20:00 +29°C° 0 mm 2 mps 746 mmHg 74%
21:00 +29°C° 0 mm 2 mps 747 mmHg 77%
22:00 +28°C° 0 mm 2 mps 747 mmHg 79%
23:00 +28°C° 0 mm 2 mps 747 mmHg 81%

Tomorrow, 30 October, Friday

Time Temperature Precipitation Wind Pressure Humidity
00:00 +28°C° 0 mm 2 mps 746 mmHg 84%
01:00 +27°C° 0 mm 2 mps 746 mmHg 86%
02:00 +27°C° 0 mm 2 mps 746 mmHg 86%
03:00 +27°C° 0 mm 2 mps 746 mmHg 87%
04:00 +27°C° 0 mm 2 mps 746 mmHg 87%
05:00 +27°C° 0 mm 2 mps 746 mmHg 85%
06:00 +28°C° 0 mm 2 mps 747 mmHg 83%
07:00 +28°C° 0 mm 2 mps 748 mmHg 81%
08:00 +30°C° 0 mm 3 mps 748 mmHg 74%
09:00 +33°C° 0 mm 3 mps 748 mmHg 66%
10:00 +35°C° 0 mm 4 mps 748 mmHg 59%
11:00 +36°C° 0 mm 4 mps 747 mmHg 57%
12:00 +36°C° 0 mm 4 mps 746 mmHg 54%
13:00 +37°C° 0 mm 4 mps 745 mmHg 52%
14:00 +37°C° 0 mm 4 mps 745 mmHg 54%
15:00 +36°C° 0 mm 3 mps 745 mmHg 56%
16:00 +36°C° 0 mm 3 mps 744 mmHg 58%
17:00 +34°C° 0.1 mm 3 mps 745 mmHg 64%
18:00 +31°C° 0.1 mm 3 mps 746 mmHg 71%
19:00 +30°C° 0.1 mm 2 mps 746 mmHg 77%
20:00 +29°C° 0 mm 2 mps 746 mmHg 79%
21:00 +29°C° 0 mm 2 mps 747 mmHg 82%
22:00 +29°C° 0 mm 2 mps 747 mmHg 84%
23:00 +28°C° 0.5 mm 2 mps 746 mmHg 87%

Day after tomorrow, 31 October, Saturday

Time Temperature Precipitation Wind Pressure Humidity
00:00 +28°C° 0.5 mm 2 mps 746 mmHg 90%
01:00 +27°C° 0.5 mm 2 mps 746 mmHg 93%
02:00 +27°C° 0.1 mm 2 mps 746 mmHg 93%
03:00 +27°C° 0.1 mm 2 mps 746 mmHg 93%
04:00 +27°C° 0.1 mm 2 mps 746 mmHg 93%
05:00 +27°C° 0 mm 3 mps 747 mmHg 90%
06:00 +28°C° 0 mm 3 mps 747 mmHg 88%
07:00 +28°C° 0 mm 3 mps 748 mmHg 86%
08:00 +30°C° 0 mm 3 mps 748 mmHg 79%
09:00 +31°C° 0 mm 3 mps 749 mmHg 73%
10:00 +34°C° 0 mm 4 mps 749 mmHg 67%
11:00 +34°C° 0.4 mm 3 mps 748 mmHg 64%
12:00 +35°C° 0.4 mm 3 mps 747 mmHg 62%
13:00 +35°C° 0.4 mm 3 mps 746 mmHg 59%
14:00 +35°C° 0.6 mm 3 mps 745 mmHg 61%
15:00 +34°C° 0.6 mm 3 mps 745 mmHg 64%
16:00 +34°C° 0.6 mm 3 mps 745 mmHg 66%
17:00 +32°C° 0.1 mm 2 mps 745 mmHg 72%
18:00 +30°C° 0.1 mm 2 mps 746 mmHg 78%
19:00 +29°C° 0.1 mm 2 mps 746 mmHg 84%
20:00 +28°C° 0.2 mm 2 mps 747 mmHg 86%
21:00 +28°C° 0.2 mm 2 mps 747 mmHg 89%
22:00 +28°C° 0.2 mm 2 mps 747 mmHg 91%
23:00 +27°C° 1.8 mm 1 mps 747 mmHg 91%

1 November, Sunday

Time Temperature Precipitation Wind Pressure Humidity
00:00 +27°C° 1.8 mm 1 mps 747 mmHg 92%
01:00 +27°C° 1.8 mm 1 mps 747 mmHg 92%
02:00 +27°C° 2.4 mm 2 mps 747 mmHg 91%
03:00 +27°C° 2.4 mm 2 mps 747 mmHg 91%
04:00 +26°C° 2.4 mm 3 mps 747 mmHg 90%
05:00 +26°C° 0.4 mm 3 mps 748 mmHg 91%
06:00 +26°C° 0.4 mm 3 mps 748 mmHg 92%
07:00 +26°C° 0.4 mm 3 mps 749 mmHg 93%
08:00 +26°C° 1.1 mm 3 mps 749 mmHg 92%
09:00 +26°C° 1.1 mm 3 mps 749 mmHg 92%
10:00 +27°C° 1.1 mm 3 mps 749 mmHg 91%
11:00 +27°C° 1 mm 3 mps 749 mmHg 90%
12:00 +27°C° 1 mm 3 mps 748 mmHg 90%
13:00 +27°C° 1 mm 3 mps 747 mmHg 89%
14:00 +26°C° 0.5 mm 3 mps 747 mmHg 90%
15:00 +26°C° 0.5 mm 3 mps 747 mmHg 91%
16:00 +26°C° 0.5 mm 3 mps 747 mmHg 92%
17:00 +26°C° 0.1 mm 2 mps 747 mmHg 93%
18:00 +25°C° 0.1 mm 2 mps 748 mmHg 94%
19:00 +25°C° 0.1 mm 1 mps 748 mmHg 95%
20:00 +25°C° 0 mm 1 mps 749 mmHg 95%
21:00 +25°C° 0 mm 1 mps 749 mmHg 96%
22:00 +25°C° 0 mm 1 mps 749 mmHg 96%
23:00 +23°C° 0 mm 0 mps 749 mmHg 96%

2 November, Monday

Time Temperature Precipitation Wind Pressure Humidity
00:00 +23°C° 0 mm 0 mps 748 mmHg 96%
01:00 +23°C° 0 mm 0 mps 748 mmHg 96%
02:00 +23°C° 0 mm 0 mps 748 mmHg 96%
03:00 +22°C° 0 mm 0 mps 748 mmHg 96%
04:00 +22°C° 0 mm 0 mps 747 mmHg 97%
05:00 +25°C° 0 mm 1 mps 748 mmHg 95%
06:00 +25°C° 0 mm 1 mps 748 mmHg 94%
07:00 +26°C° 0 mm 1 mps 749 mmHg 92%
08:00 +27°C° 0 mm 1 mps 749 mmHg 89%
09:00 +27°C° 0 mm 1 mps 749 mmHg 85%
10:00 +28°C° 0 mm 1 mps 749 mmHg 82%
11:00 +29°C° 0.4 mm 1 mps 748 mmHg 77%
12:00 +30°C° 0.4 mm 1 mps 747 mmHg 73%
13:00 +31°C° 0.4 mm 1 mps 746 mmHg 69%
14:00 +31°C° 0.8 mm 1 mps 746 mmHg 71%
15:00 +31°C° 0.8 mm 2 mps 745 mmHg 73%
16:00 +30°C° 0.8 mm 2 mps 745 mmHg 75%
17:00 +29°C° 0.2 mm 1 mps 745 mmHg 79%
18:00 +28°C° 0.2 mm 1 mps 746 mmHg 83%
19:00 +25°C° 0.2 mm 0 mps 746 mmHg 87%
20:00 +25°C° 0 mm 0 mps 747 mmHg 88%
21:00 +25°C° 0 mm 0 mps 747 mmHg 89%
22:00 +24°C° 0 mm 0 mps 747 mmHg 90%
23:00 +24°C° 0 mm 0 mps 747 mmHg 90%

3 November, Tuesday

Time Temperature Precipitation Wind Pressure Humidity
00:00 +24°C° 0 mm 0 mps 747 mmHg 90%
01:00 +24°C° 0 mm 0 mps 747 mmHg 90%
02:00 +24°C° 0.1 mm 0 mps 747 mmHg 91%
03:00 +24°C° 0.1 mm 0 mps 746 mmHg 91%
04:00 +25°C° 0.1 mm 1 mps 746 mmHg 91%
05:00 +26°C° 0 mm 1 mps 747 mmHg 90%
06:00 +27°C° 0 mm 1 mps 748 mmHg 88%
07:00 +27°C° 0 mm 1 mps 748 mmHg 87%
08:00 +28°C° 0.1 mm 1 mps 748 mmHg 82%
09:00 +30°C° 0.1 mm 1 mps 749 mmHg 77%
10:00 +31°C° 0.1 mm 1 mps 749 mmHg 72%
11:00 +31°C° 1.4 mm 1 mps 748 mmHg 71%
12:00 +31°C° 1.4 mm 1 mps 747 mmHg 70%
13:00 +32°C° 1.4 mm 1 mps 746 mmHg 70%
14:00 +31°C° 1.8 mm 1 mps 746 mmHg 72%
15:00 +31°C° 1.8 mm 1 mps 745 mmHg 75%
16:00 +30°C° 1.8 mm 1 mps 745 mmHg 78%
17:00 +29°C° 0.3 mm 1 mps 745 mmHg 80%
18:00 +28°C° 0.3 mm 1 mps 746 mmHg 82%
19:00 +28°C° 0.3 mm 1 mps 747 mmHg 84%
20:00 +27°C° 0 mm 1 mps 747 mmHg 85%
21:00 +27°C° 0 mm 1 mps 747 mmHg 86%
22:00 +27°C° 0 mm 1 mps 748 mmHg 88%
23:00 +27°C° 0.4 mm 1 mps 747 mmHg 88%
Show more

We Need Your Consent

Meteoprog and our Service Providers may store and access personal data such as cookies, device identifiers or other similar technologies on your device and process such data to personalise content and ads, as well as provide social media features and to analyse the traffic.

  • Store and/or access information on your device

    Cookies, device identifiers or other information can be stored or accessed on your device for the purposes indicated above.

  • Personalised ads and content, ad and content measurement, audience insights, and products development

    Ads and content can be personalised based on a profile. More data can be added to better personalise ads and content. Ad and content performance can be measured. Insights about the audience who saw the ads and content can be derived. Such data can be used to develop or improve user’s experience, systems and software.

By clicking ‘I Agree’ you will allow the use of indicated cookies, device identifiers, web beacons or other similar technologies. Your settings can be changed in the browser on your device.

For certain purposes, legitimate interests may be relied on, rather than consent. You can read more about this in our Privacy and Cookie Policy.